Time,TemperatureF,DewpointF,PressureIn,WindDirection,WindDirectionDegrees,WindSpeedMPH,WindSpeedGustMPH,Humidity,HourlyPrecipIn,Conditions,Clouds,dailyrainin,SoftwareType,DateUTC
2013-03-24 00:03:00,31.0,17.0,29.89,North,10,2.0,4.0,56,0.00,,,0.00,,2013-03-24 04:03:00,
2013-03-24 00:13:00,31.0,17.0,29.89,North,10,2.0,4.0,56,0.00,,,0.00,,2013-03-24 04:13:00,
2013-03-24 00:23:00,31.0,17.0,29.90,West,259,0.0,6.0,56,0.00,,,0.00,,2013-03-24 04:23:00,
2013-03-24 00:33:00,31.0,18.0,29.90,WNW,286,0.0,3.0,57,0.00,,,0.00,,2013-03-24 04:33:00,
2013-03-24 00:43:00,31.0,18.0,29.90,WNW,286,0.0,3.0,57,0.00,,,0.00,,2013-03-24 04:43:00,
2013-03-24 00:53:00,30.0,17.0,29.90,NW,309,0.0,4.0,58,0.00,,,0.00,,2013-03-24 04:53:00,
2013-03-24 01:02:00,30.0,17.0,29.90,West,281,1.0,4.0,58,0.00,,,0.00,,2013-03-24 05:02:00,
2013-03-24 01:12:00,30.0,17.0,29.90,West,281,1.0,4.0,58,0.00,,,0.00,,2013-03-24 05:12:00,
2013-03-24 01:23:00,30.0,17.0,29.89,NNW,327,0.0,3.0,59,0.00,,,0.00,,2013-03-24 05:23:00,
2013-03-24 01:32:00,30.0,18.0,29.90,NW,306,0.0,2.0,60,0.00,,,0.00,,2013-03-24 05:32:00,
2013-03-24 01:42:00,30.0,18.0,29.90,NW,306,0.0,2.0,60,0.00,,,0.00,,2013-03-24 05:42:00,
2013-03-24 01:52:00,29.0,17.0,29.89,NW,314,1.0,4.0,61,0.00,,,0.00,,2013-03-24 05:52:00,
2013-03-24 02:02:00,29.0,18.0,29.89,NW,314,0.0,1.0,62,0.00,,,0.00,,2013-03-24 06:02:00,
2013-03-24 02:12:00,29.0,18.0,29.89,NW,314,0.0,1.0,62,0.00,,,0.00,,2013-03-24 06:12:00,
2013-03-24 02:22:00,29.0,18.0,29.89,NW,314,0.0,2.0,63,0.00,,,0.00,,2013-03-24 06:22:00,
2013-03-24 02:32:00,28.0,17.0,29.88,WSW,245,0.0,3.0,63,0.00,,,0.00,,2013-03-24 06:32:00,
2013-03-24 02:42:00,28.0,17.0,29.88,WSW,245,0.0,3.0,63,0.00,,,0.00,,2013-03-24 06:42:00,
2013-03-24 02:52:00,29.0,18.0,29.88,NNW,345,0.0,4.0,62,0.00,,,0.00,,2013-03-24 06:52:00,
2013-03-24 03:02:00,29.0,18.0,29.87,WNW,296,1.0,5.0,62,0.00,,,0.00,,2013-03-24 07:02:00,
2013-03-24 03:12:00,29.0,18.0,29.87,WNW,296,1.0,5.0,62,0.00,,,0.00,,2013-03-24 07:12:00,
2013-03-24 03:22:00,29.0,18.0,29.86,NW,320,0.0,2.0,63,0.00,,,0.00,,2013-03-24 07:22:00,
2013-03-24 03:32:00,28.0,17.0,29.85,NW,319,0.0,2.0,64,0.00,,,0.00,,2013-03-24 07:32:00,
2013-03-24 03:42:00,28.0,17.0,29.85,NW,319,0.0,2.0,64,0.00,,,0.00,,2013-03-24 07:42:00,
2013-03-24 03:52:00,28.0,18.0,29.85,WNW,300,0.0,1.0,66,0.00,,,0.00,,2013-03-24 07:52:00,
2013-03-24 04:03:00,27.0,17.0,29.84,WNW,300,0.0,1.0,66,0.00,,,0.00,,2013-03-24 08:03:00,
2013-03-24 04:12:00,27.0,17.0,29.84,WNW,300,0.0,1.0,66,0.00,,,0.00,,2013-03-24 08:12:00,
2013-03-24 04:22:00,27.0,17.0,29.85,WNW,300,0.0,0.0,66,0.00,,,0.00,,2013-03-24 08:22:00,
2013-03-24 04:32:00,27.0,18.0,29.86,WNW,300,0.0,1.0,67,0.00,,,0.00,,2013-03-24 08:32:00,
2013-03-24 04:42:00,27.0,18.0,29.86,WNW,300,0.0,1.0,67,0.00,,,0.00,,2013-03-24 08:42:00,
2013-03-24 04:52:00,27.0,18.0,29.87,NW,323,0.0,2.0,68,0.00,,,0.00,,2013-03-24 08:52:00,
2013-03-24 05:02:00,27.0,18.0,29.87,NW,307,0.0,2.0,69,0.00,,,0.00,,2013-03-24 09:02:00,
2013-03-24 05:12:00,27.0,18.0,29.87,NW,307,0.0,2.0,69,0.00,,,0.00,,2013-03-24 09:12:00,
2013-03-24 05:22:00,27.0,18.0,29.87,NW,307,0.0,0.0,69,0.00,,,0.00,,2013-03-24 09:22:00,
2013-03-24 05:33:00,26.0,18.0,29.87,NW,307,0.0,1.0,70,0.00,,,0.00,,2013-03-24 09:33:00,
2013-03-24 05:42:00,26.0,18.0,29.87,NW,307,0.0,1.0,70,0.00,,,0.00,,2013-03-24 09:42:00,
2013-03-24 05:53:00,26.0,18.0,29.86,WNW,293,0.0,3.0,70,0.00,,,0.00,,2013-03-24 09:53:00,
2013-03-24 06:03:00,27.0,19.0,29.88,NW,311,0.0,2.0,70,0.00,,,0.00,,2013-03-24 10:03:00,
2013-03-24 06:12:00,27.0,19.0,29.88,NW,311,0.0,2.0,70,0.00,,,0.00,,2013-03-24 10:12:00,
2013-03-24 06:23:00,27.0,19.0,29.88,WNW,290,1.0,3.0,70,0.00,,,0.00,,2013-03-24 10:23:00,
2013-03-24 06:33:00,27.0,19.0,29.89,NW,307,0.0,2.0,70,0.00,,,0.00,,2013-03-24 10:33:00,
2013-03-24 06:42:00,27.0,19.0,29.89,NW,307,0.0,2.0,70,0.00,,,0.00,,2013-03-24 10:42:00,
2013-03-24 06:52:00,26.0,18.0,29.89,NW,308,0.0,2.0,71,0.00,,,0.00,,2013-03-24 10:52:00,
2013-03-24 07:03:00,26.0,18.0,29.89,NW,307,0.0,1.0,72,0.00,,,0.00,,2013-03-24 11:03:00,
2013-03-24 07:12:00,26.0,18.0,29.89,NW,307,0.0,1.0,72,0.00,,,0.00,,2013-03-24 11:12:00,
2013-03-24 07:22:00,26.0,18.0,29.88,NW,308,0.0,1.0,72,0.00,,,0.00,,2013-03-24 11:22:00,
2013-03-24 07:33:00,25.0,18.0,29.88,NW,308,0.0,1.0,73,0.00,,,0.00,,2013-03-24 11:33:00,
2013-03-24 07:42:00,25.0,18.0,29.88,NW,308,0.0,1.0,73,0.00,,,0.00,,2013-03-24 11:42:00,
2013-03-24 07:52:00,26.0,19.0,29.90,NW,308,0.0,2.0,74,0.00,,,0.00,,2013-03-24 11:52:00,
2013-03-24 08:03:00,26.0,19.0,29.90,NW,307,0.0,2.0,73,0.00,,,0.00,,2013-03-24 12:03:00,
2013-03-24 08:12:00,26.0,19.0,29.90,NW,307,0.0,2.0,73,0.00,,,0.00,,2013-03-24 12:12:00,
2013-03-24 08:22:00,28.0,20.0,29.91,NW,311,0.0,3.0,73,0.00,,,0.00,,2013-03-24 12:22:00,
2013-03-24 08:32:00,30.0,21.0,29.92,WNW,284,0.0,3.0,68,0.00,,,0.00,,2013-03-24 12:32:00,
2013-03-24 08:42:00,30.0,21.0,29.92,WNW,284,0.0,3.0,68,0.00,,,0.00,,2013-03-24 12:42:00,
2013-03-24 08:52:00,31.0,21.0,29.92,WSW,253,1.0,5.0,66,0.00,,,0.00,,2013-03-24 12:52:00,
2013-03-24 09:02:00,32.0,21.0,29.92,NNW,331,2.0,5.0,64,0.00,,,0.00,,2013-03-24 13:02:00,
2013-03-24 09:13:00,32.0,21.0,29.92,NNW,331,2.0,5.0,64,0.00,,,0.00,,2013-03-24 13:13:00,
2013-03-24 09:22:00,33.0,21.0,29.92,WNW,284,2.0,5.0,62,0.00,,,0.00,,2013-03-24 13:22:00,
2013-03-24 09:32:00,34.0,22.0,29.92,NW,323,1.0,5.0,60,0.00,,,0.00,,2013-03-24 13:32:00,
2013-03-24 09:42:00,34.0,22.0,29.92,NW,323,1.0,5.0,60,0.00,,,0.00,,2013-03-24 13:42:00,
2013-03-24 09:52:00,34.0,21.0,29.91,NW,309,2.0,6.0,59,0.00,,,0.00,,2013-03-24 13:52:00,
2013-03-24 10:02:00,35.0,22.0,29.91,NW,312,1.0,7.0,59,0.00,,,0.00,,2013-03-24 14:02:00,
2013-03-24 10:12:00,35.0,22.0,29.91,NW,312,1.0,7.0,59,0.00,,,0.00,,2013-03-24 14:12:00,
2013-03-24 10:22:00,37.0,23.0,29.91,WNW,293,1.0,5.0,56,0.00,,,0.00,,2013-03-24 14:22:00,
2013-03-24 10:32:00,38.0,22.0,29.90,NW,319,3.0,10.0,52,0.00,,,0.00,,2013-03-24 14:32:00,
2013-03-24 10:42:00,38.0,22.0,29.90,NW,319,3.0,10.0,52,0.00,,,0.00,,2013-03-24 14:42:00,
2013-03-24 10:53:00,41.0,23.0,29.90,NNE,14,5.0,11.0,48,0.00,,,0.00,,2013-03-24 14:53:00,
2013-03-24 11:02:00,41.0,22.0,29.88,NNW,334,4.0,14.0,47,0.00,,,0.00,,2013-03-24 15:02:00,
2013-03-24 11:12:00,41.0,22.0,29.88,NNW,334,4.0,14.0,47,0.00,,,0.00,,2013-03-24 15:12:00,
2013-03-24 11:22:00,43.0,22.0,29.89,NNE,22,5.0,13.0,43,0.00,,,0.00,,2013-03-24 15:22:00,
2013-03-24 11:33:00,44.0,25.0,29.89,WNW,288,3.0,12.0,46,0.00,,,0.00,,2013-03-24 15:33:00,
2013-03-24 11:43:00,44.0,25.0,29.89,WNW,288,3.0,12.0,46,0.00,,,0.00,,2013-03-24 15:43:00,
2013-03-24 11:53:00,45.0,24.0,29.88,NNW,333,3.0,10.0,44,0.00,,,0.00,,2013-03-24 15:53:00,
2013-03-24 12:03:00,45.0,23.0,29.87,WNW,297,5.0,10.0,42,0.00,,,0.00,,2013-03-24 16:03:00,
2013-03-24 12:13:00,45.0,23.0,29.87,WNW,297,5.0,10.0,42,0.00,,,0.00,,2013-03-24 16:13:00,
2013-03-24 12:23:00,46.0,25.0,29.86,NNW,338,4.0,15.0,44,0.00,,,0.00,,2013-03-24 16:23:00,
2013-03-24 12:33:00,46.0,25.0,29.85,NNW,328,6.0,15.0,43,0.00,,,0.00,,2013-03-24 16:33:00,
2013-03-24 12:42:00,46.0,25.0,29.85,NNW,328,6.0,15.0,43,0.00,,,0.00,,2013-03-24 16:42:00,
2013-03-24 12:52:00,47.0,26.0,29.84,NW,323,2.0,7.0,43,0.00,,,0.00,,2013-03-24 16:52:00,
2013-03-24 13:02:00,48.0,26.0,29.83,SW,226,2.0,7.0,42,0.00,,,0.00,,2013-03-24 17:02:00,
2013-03-24 13:12:00,48.0,26.0,29.83,SW,226,2.0,7.0,42,0.00,,,0.00,,2013-03-24 17:12:00,
2013-03-24 13:23:00,48.0,26.0,29.82,SE,128,1.0,10.0,42,0.00,,,0.00,,2013-03-24 17:23:00,
2013-03-24 13:33:00,48.0,25.0,29.81,NNW,331,2.0,10.0,41,0.00,,,0.00,,2013-03-24 17:33:00,
2013-03-24 13:42:00,48.0,25.0,29.81,NNW,331,2.0,10.0,41,0.00,,,0.00,,2013-03-24 17:42:00,
2013-03-24 13:53:00,49.0,25.0,29.82,North,355,2.0,10.0,39,0.00,,,0.00,,2013-03-24 17:53:00,
2013-03-24 14:03:00,49.0,26.0,29.81,NNW,337,3.0,10.0,41,0.00,,,0.00,,2013-03-24 18:03:00,
2013-03-24 14:12:00,49.0,26.0,29.81,NNW,337,3.0,10.0,41,0.00,,,0.00,,2013-03-24 18:12:00,
2013-03-24 14:22:00,48.0,25.0,29.81,WNW,294,1.0,9.0,40,0.00,,,0.00,,2013-03-24 18:22:00,
2013-03-24 14:33:00,49.0,25.0,29.80,North,355,4.0,8.0,39,0.00,,,0.00,,2013-03-24 18:33:00,
2013-03-24 14:43:00,49.0,25.0,29.80,North,355,4.0,8.0,39,0.00,,,0.00,,2013-03-24 18:43:00,
2013-03-24 14:52:00,49.0,26.0,29.79,NW,310,1.0,9.0,41,0.00,,,0.00,,2013-03-24 18:52:00,
2013-03-24 15:02:00,48.0,24.0,29.77,NNW,334,4.0,9.0,39,0.00,,,0.00,,2013-03-24 19:02:00,
2013-03-24 15:12:00,48.0,24.0,29.77,NNW,334,4.0,9.0,39,0.00,,,0.00,,2013-03-24 19:12:00,
2013-03-24 15:22:00,47.0,23.0,29.76,NNW,340,5.0,10.0,39,0.00,,,0.00,,2013-03-24 19:22:00,
2013-03-24 15:32:00,46.0,25.0,29.75,NNW,333,3.0,11.0,43,0.00,,,0.00,,2013-03-24 19:32:00,
2013-03-24 15:43:00,46.0,25.0,29.75,NNW,333,3.0,11.0,43,0.00,,,0.00,,2013-03-24 19:43:00,
2013-03-24 15:53:00,46.0,24.0,29.75,NNE,26,2.0,9.0,42,0.00,,,0.00,,2013-03-24 19:53:00,
2013-03-24 16:03:00,46.0,24.0,29.75,North,9,2.0,11.0,41,0.00,,,0.00,,2013-03-24 20:03:00,
2013-03-24 16:12:00,46.0,24.0,29.75,North,9,2.0,11.0,41,0.00,,,0.00,,2013-03-24 20:12:00,
2013-03-24 16:22:00,46.0,24.0,29.75,NW,306,5.0,10.0,41,0.00,,,0.00,,2013-03-24 20:22:00,
2013-03-24 16:32:00,45.0,23.0,29.73,NNE,21,5.0,7.0,41,0.00,,,0.00,,2013-03-24 20:32:00,
2013-03-24 16:42:00,45.0,23.0,29.73,NNE,21,5.0,7.0,41,0.00,,,0.00,,2013-03-24 20:42:00,
2013-03-24 16:53:00,44.0,23.0,29.73,North,355,3.0,8.0,43,0.00,,,0.00,,2013-03-24 20:53:00,
2013-03-24 17:02:00,43.0,22.0,29.72,North,9,5.0,9.0,43,0.00,,,0.00,,2013-03-24 21:02:00,
2013-03-24 17:12:00,43.0,22.0,29.72,North,9,5.0,9.0,43,0.00,,,0.00,,2013-03-24 21:12:00,
2013-03-24 17:22:00,43.0,22.0,29.73,North,355,4.0,8.0,43,0.00,,,0.00,,2013-03-24 21:22:00,
2013-03-24 17:33:00,43.0,23.0,29.72,NNW,336,1.0,8.0,45,0.00,,,0.00,,2013-03-24 21:33:00,
2013-03-24 17:43:00,43.0,23.0,29.72,NNW,336,1.0,8.0,45,0.00,,,0.00,,2013-03-24 21:43:00,
2013-03-24 17:53:00,43.0,24.0,29.72,North,355,1.0,4.0,46,0.00,,,0.00,,2013-03-24 21:53:00,
2013-03-24 18:03:00,42.0,23.0,29.72,NNW,333,1.0,6.0,47,0.00,,,0.00,,2013-03-24 22:03:00,
2013-03-24 18:13:00,42.0,23.0,29.72,NNW,333,1.0,6.0,47,0.00,,,0.00,,2013-03-24 22:13:00,
2013-03-24 18:23:00,42.0,23.0,29.72,NNE,26,1.0,8.0,46,0.00,,,0.00,,2013-03-24 22:23:00,
2013-03-24 18:33:00,41.0,22.0,29.73,NNE,17,2.0,6.0,47,0.00,,,0.00,,2013-03-24 22:33:00,
2013-03-24 18:43:00,41.0,22.0,29.73,NNE,17,2.0,6.0,47,0.00,,,0.00,,2013-03-24 22:43:00,
2013-03-24 18:53:00,41.0,23.0,29.73,NW,308,1.0,3.0,48,0.00,,,0.00,,2013-03-24 22:53:00,
2013-03-24 19:03:00,40.0,22.0,29.74,NW,325,0.0,3.0,49,0.00,,,0.00,,2013-03-24 23:03:00,
2013-03-24 19:12:00,40.0,22.0,29.74,NW,325,0.0,3.0,49,0.00,,,0.00,,2013-03-24 23:12:00,
2013-03-24 19:22:00,40.0,22.0,29.73,NNW,332,0.0,4.0,49,0.00,,,0.00,,2013-03-24 23:22:00,
2013-03-24 19:32:00,39.0,22.0,29.72,NW,323,0.0,2.0,51,0.00,,,0.00,,2013-03-24 23:32:00,
2013-03-24 19:42:00,39.0,22.0,29.72,NW,323,0.0,2.0,51,0.00,,,0.00,,2013-03-24 23:42:00,
2013-03-24 19:53:00,39.0,23.0,29.71,NW,323,0.0,3.0,52,0.00,,,0.00,,2013-03-24 23:53:00,
2013-03-24 20:02:00,38.0,22.0,29.73,NW,322,0.0,1.0,53,0.00,,,0.00,,2013-03-25 00:02:00,
2013-03-24 20:12:00,38.0,22.0,29.73,NW,322,0.0,1.0,53,0.00,,,0.00,,2013-03-25 00:12:00,
2013-03-24 20:22:00,38.0,23.0,29.75,NW,322,0.0,0.0,54,0.00,,,0.00,,2013-03-25 00:22:00,
2013-03-24 20:32:00,38.0,24.0,29.76,NW,323,0.0,0.0,56,0.00,,,0.00,,2013-03-25 00:32:00,
2013-03-24 20:42:00,38.0,24.0,29.76,NW,323,0.0,0.0,56,0.00,,,0.00,,2013-03-25 00:42:00,
2013-03-24 20:53:00,37.0,23.0,29.77,NW,322,0.0,0.0,57,0.00,,,0.00,,2013-03-25 00:53:00,
2013-03-24 21:02:00,37.0,23.0,29.76,NW,322,0.0,1.0,56,0.00,,,0.00,,2013-03-25 01:02:00,
2013-03-24 21:12:00,37.0,23.0,29.76,NW,322,0.0,1.0,56,0.00,,,0.00,,2013-03-25 01:12:00,
2013-03-24 21:22:00,37.0,23.0,29.76,NW,323,0.0,2.0,56,0.00,,,0.00,,2013-03-25 01:22:00,
2013-03-24 21:32:00,37.0,23.0,29.76,NW,322,0.0,1.0,56,0.00,,,0.00,,2013-03-25 01:32:00,
2013-03-24 21:42:00,37.0,23.0,29.76,NW,322,0.0,1.0,56,0.00,,,0.00,,2013-03-25 01:42:00,
2013-03-24 21:53:00,36.0,22.0,29.76,NW,323,0.0,0.0,57,0.00,,,0.00,,2013-03-25 01:53:00,
2013-03-24 22:02:00,36.0,23.0,29.76,NW,323,0.0,1.0,59,0.00,,,0.00,,2013-03-25 02:02:00,
2013-03-24 22:12:00,36.0,23.0,29.76,NW,323,0.0,1.0,59,0.00,,,0.00,,2013-03-25 02:12:00,
2013-03-24 22:22:00,36.0,23.0,29.75,NNE,23,0.0,2.0,58,0.00,,,0.00,,2013-03-25 02:22:00,
2013-03-24 22:33:00,36.0,23.0,29.75,North,10,0.0,2.0,58,0.00,,,0.00,,2013-03-25 02:33:00,
2013-03-24 22:42:00,36.0,23.0,29.75,North,10,0.0,2.0,58,0.00,,,0.00,,2013-03-25 02:42:00,
2013-03-24 22:52:00,36.0,23.0,29.75,North,11,0.0,0.0,59,0.00,,,0.00,,2013-03-25 02:52:00,
2013-03-24 23:02:00,35.0,23.0,29.75,North,11,0.0,0.0,61,0.00,,,0.00,,2013-03-25 03:02:00,
2013-03-24 23:13:00,35.0,23.0,29.75,North,11,0.0,0.0,61,0.00,,,0.00,,2013-03-25 03:13:00,
2013-03-24 23:23:00,35.0,23.0,29.75,North,11,0.0,1.0,61,0.00,,,0.00,,2013-03-25 03:23:00,
2013-03-24 23:33:00,35.0,23.0,29.74,NNW,338,0.0,3.0,60,0.00,,,0.00,,2013-03-25 03:33:00,
2013-03-24 23:43:00,35.0,23.0,29.74,ENE,61,0.0,3.0,60,0.00,,,0.00,,2013-03-25 03:43:00,
2013-03-24 23:53:00,35.0,23.0,29.74,ENE,61,0.0,3.0,60,0.00,,,0.00,,2013-03-25 03:53:00,